[[{"header":{"parameterUnit":"m.s-1","parameterCategory":1,"la1":30.2991,"la2":30.254,"lo1":-89.0895,"lo2":-89.0444,"dy":0.0017,"dx":0.0017,"nx":28,"ny":28,"refTime":"2024-07-31T21:00:00:Z","depth":0,"parameterNumber":2,"parameterNumberName":"U-component_of_WINDS"},"data":[0,0,0,0,0,0,0,0,0,0,0,0,0,0,0,0,0,0,0,0,0,0,0,0,0,0,0,0,0,0,0,0,0,0,0,0,0,0,0,0,0,0,0,0,0,0,0,0,0,0,0,0,0,0,0,0,0,0,0.4776,0.4776,0,0.4847,0.4848,0.4849,0.4878,0.4878,0.4878,0.4878,0.4955,0.4957,0.4959,0,0,0,0,0,0,0,0,0,0,0,0,0,0.4669,0.467,0.4776,0.4777,0.4777,0.4847,0.4848,0.4849,0.4878,0.4878,0.4878,0.4878,0.4954,0.4957,0.4959,0,0,0,0,0,0,0,0,0,0,0,0,0,0.4725,0.4671,0.4775,0.48,0.4803,0.4847,0.4848,0.4849,0.4878,0.4878,0.4878,0.4878,0.4953,0.4957,0.496,0.4985,0,0,0.497,0.4971,0,0,0,0,0,0,0,0,0.4722,0.4729,0.4796,0.4799,0.4802,0.4854,0.4839,0.4895,0.4879,0.485,0.4878,0.4878,0.4922,0.4928,0.4942,0.4989,0.4992,0.497,0.4972,0.4974,0.4975,0,0,0,0,0,0,0,0.4718,0.4726,0.4804,0.4797,0.4801,0.4809,0.4817,0.4849,0.4886,0.4852,0.4855,0.4863,0.4923,0.4938,0.4944,0.4993,0.497,0.4973,0.4975,0.4976,0.5066,0.5066,0,0,0,0,0,0,0.4709,0.4723,0.4802,0.4806,0.476,0.4811,0.482,0.4837,0.4886,0.4893,0.4863,0.4864,0.4933,0.494,0.4946,0.498,0.4974,0.4977,0.4979,0.5066,0.5066,0.5066,0,0,0,0,0,0,0.4707,0.4716,0.4799,0.4765,0.4776,0.4814,0.4833,0.4839,0.4854,0.4894,0.4901,0.4871,0.4933,0.4942,0.4975,0.4983,0.4978,0.4981,0.5065,0.5066,0.5066,0.5047,0,0,0,0,0,0,0.4704,0.4715,0.4724,0.4765,0.4778,0.4825,0.4833,0.484,0.4859,0.4861,0.4904,0.491,0.4933,0.497,0.4979,0.4987,0.4984,0.5065,0.5065,0.5066,0.5047,0.5046,0.5046,0,0,0,0,0,0.47,0.4716,0.4724,0.4734,0.479,0.4825,0.4833,0.4858,0.4859,0.487,0.4895,0.4909,0.4981,0.4973,0.4983,0.4993,0.5064,0.5065,0.5066,0.5047,0.5047,0.5046,0,0,0,0,0,0,0.4676,0.4722,0.4731,0.4761,0.4789,0.483,0.4844,0.4857,0.4886,0.4887,0.4918,0.4927,0.4958,0.4979,0.497,0.5021,0.5024,0.5027,0.5006,0.5006,0.5006,0.5,0.4986,0,0,0,0,0,0.4674,0.4698,0.4737,0.476,0.4773,0.4806,0.4823,0.4839,0.487,0.4882,0.4911,0.4941,0.4971,0.4989,0.5019,0.505,0.506,0.5062,0.5062,0.5061,0.5063,0.5083,0.5084,0.5069,0.5069,0.5069,0,0,0.4671,0.4699,0.4712,0.4756,0.478,0.4805,0.4816,0.4842,0.4862,0.4887,0.492,0.4942,0.4978,0.501,0.5026,0.5029,0.507,0.5062,0.5062,0.5064,0.5084,0.5085,0.5086,0.507,0.507,0.507,0,0,0.4678,0.4701,0.4722,0.4746,0.4781,0.4803,0.4808,0.4847,0.4863,0.4896,0.4916,0.494,0.499,0.5015,0.5034,0.5051,0.5066,0.506,0.5059,0.5077,0.5079,0.508,0.5087,0.5089,0.5062,0.5062,0.5062,0,0.4669,0.4707,0.4732,0.4758,0.4777,0.48,0.4823,0.4845,0.4888,0.4902,0.4904,0.4967,0.4993,0.5032,0.5036,0.5051,0.5059,0.5056,0.5076,0.5078,0.5079,0.5086,0.5089,0.5062,0.5062,0.5062,0.5062,0,0.4695,0.4722,0.4735,0.4775,0.4796,0.482,0.4851,0.4869,0.4884,0.4906,0.4941,0.4973,0.5009,0.502,0.5035,0.5062,0.5062,0.507,0.5074,0.5079,0.5086,0.5089,0.506,0.5061,0.5061,0.5061,0,0,0.4689,0.4743,0.4748,0.4767,0.4808,0.4829,0.4855,0.4889,0.4905,0.4935,0.4958,0.5,0.5007,0.5029,0.5048,0.5064,0.5077,0.507,0.5071,0.507,0.5109,0.5103,0.5106,0.5086,0.5087,0.5087,0.5106,0,0.4702,0.4747,0.4771,0.4807,0.4833,0.4855,0.4878,0.4906,0.4928,0.4953,0.4978,0.5007,0.5014,0.5028,0.5044,0.5071,0.5085,0.507,0.5109,0.511,0.51,0.5109,0.5103,0.5119,0.5109,0.5109,0.511,0,0.4722,0.4751,0.4789,0.4828,0.4839,0.4859,0.4893,0.4917,0.495,0.4965,0.4989,0.5008,0.5038,0.5039,0.5081,0.507,0.5088,0.5104,0.5105,0.511,0.511,0.5115,0.5125,0.5128,0.5114,0.5114,0.5113,0,0.4715,0.4762,0.4792,0.4807,0.4853,0.4866,0.4886,0.4919,0.4939,0.4969,0.4983,0.5016,0.5035,0.5062,0.5089,0.5087,0.5129,0.5132,0.5143,0.5143,0.5151,0.515,0.5165,0.5162,0.5162,0.5162,0.5161,0,0.4726,0.4749,0.4789,0.4807,0.4834,0.4862,0.4888,0.491,0.4939,0.4963,0.4985,0.5007,0.5042,0.5069,0.5091,0.5123,0.5131,0.5145,0.5151,0.5143,0.5142,0.5156,0.5155,0.5162,0.5162,0.5162,0.5162,0,0.4722,0.4749,0.4783,0.4823,0.4834,0.4852,0.4888,0.4907,0.4929,0.4959,0.4968,0.5004,0.5037,0.5068,0.5112,0.5127,0.516,0.5166,0.5148,0.5151,0.516,0.5159,0.5185,0.519,0.5182,0.5182,0.5182,0,0.4728,0.4746,0.4788,0.4805,0.4824,0.4851,0.4871,0.49,0.4921,0.496,0.4975,0.5009,0.5038,0.5091,0.5122,0.5156,0.5164,0.5171,0.517,0.5162,0.5165,0.5164,0.5166,0.517,0.517,0.517,0.517,0,0.4736,0.4748,0.4775,0.4808,0.4831,0.4858,0.4886,0.4899,0.4933,0.4955,0.4989,0.5011,0.5056,0.5091,0.5128,0.5151,0.5167,0.517,0.5175,0.5168,0.5156,0.5163,0.5147,0.517,0.517,0.517,0.517,0.517,0.4737,0.4754,0.4787,0.4817,0.4841,0.4867,0.4887,0.4912,0.494,0.4978,0.4994,0.5028,0.5062,0.5114,0.5137,0.5165,0.5168,0.5174,0.5176,0.5177,0.5176,0.5151,0.5172,0.5172,0.5172,0.5172,0.5172,0,0.4746,0.4768,0.4796,0.4834,0.4858,0.487,0.4901,0.4921,0.4951,0.4981,0.5009,0.5048,0.5081,0.5115,0.5151,0.5167,0.5176,0.5176,0.5175,0.518,0.5171,0.5164,0.5169,0.5169,0.5169,0.5169,0.5169,0.5169,0.4754,0.4784,0.4801,0.4844,0.4866,0.4899,0.4916,0.4941,0.4965,0.5007,0.5035,0.5056,0.5088,0.5127,0.5159,0.5168,0.5181,0.5179,0.519,0.5181,0.5181,0.5181,0.5174,0.5181,0.5181,0.5197,0.5198,0.5198]},{"header":{"parameterUnit":"m.s-1","parameterCategory":1,"la1":30.2991,"la2":30.254,"lo1":-89.0895,"lo2":-89.0444,"dy":0.0017,"dx":0.0017,"nx":28,"ny":28,"refTime":"2024-07-31T21:00:00:Z","depth":0,"parameterNumber":3,"parameterNumberName":"V-component_of_WINDS"},"data":[0,0,0,0,0,0,0,0,0,0,0,0,0,0,0,0,0,0,0,0,0,0,0,0,0,0,0,0,0,0,0,0,0,0,0,0,0,0,0,0,0,0,0,0,0,0,0,0,0,0,0,0,0,0,0,0,0,0,1.1401,1.1401,0,1.1383,1.1383,1.1383,1.1372,1.1372,1.1372,1.1372,1.1352,1.1352,1.1351,0,0,0,0,0,0,0,0,0,0,0,0,0,1.1422,1.1421,1.1401,1.1401,1.1401,1.1383,1.1383,1.1383,1.1372,1.1372,1.1372,1.1372,1.1352,1.1352,1.1351,0,0,0,0,0,0,0,0,0,0,0,0,0,1.1409,1.1421,1.1401,1.1393,1.1392,1.1383,1.1383,1.1383,1.1372,1.1372,1.1372,1.1372,1.1352,1.1352,1.1351,1.1348,0,0,1.1349,1.1349,0,0,0,0,0,0,0,0,1.141,1.1408,1.1395,1.1394,1.1393,1.138,1.1383,1.1371,1.1372,1.138,1.1372,1.1372,1.1361,1.136,1.1357,1.1347,1.1347,1.1349,1.1348,1.1348,1.1348,0,0,0,0,0,0,0,1.1411,1.1409,1.1394,1.1394,1.1393,1.1389,1.1387,1.1381,1.1371,1.1379,1.1378,1.1376,1.1361,1.1357,1.1356,1.1346,1.1349,1.1348,1.1348,1.1348,1.133,1.133,0,0,0,0,0,0,1.1413,1.141,1.1395,1.1394,1.1401,1.1389,1.1387,1.1384,1.1371,1.1369,1.1376,1.1376,1.1359,1.1357,1.1355,1.1349,1.1348,1.1347,1.1347,1.133,1.133,1.133,0,0,0,0,0,0,1.1414,1.1412,1.1395,1.1401,1.1399,1.1389,1.1386,1.1384,1.138,1.1369,1.1367,1.1375,1.1359,1.1356,1.1349,1.1348,1.1347,1.1347,1.133,1.133,1.133,1.1337,0,0,0,0,0,0,1.1414,1.1412,1.1412,1.1402,1.1399,1.1391,1.1386,1.1383,1.1379,1.1378,1.1367,1.1365,1.1358,1.135,1.1349,1.1347,1.1346,1.133,1.133,1.133,1.1337,1.1337,1.1338,0,0,0,0,0,1.1415,1.1416,1.1413,1.1411,1.1399,1.1391,1.1389,1.1382,1.1379,1.1378,1.137,1.1366,1.1349,1.135,1.1348,1.1346,1.133,1.133,1.133,1.1337,1.1337,1.1338,0,0,0,0,0,0,1.1427,1.1414,1.1411,1.1408,1.14,1.1389,1.1388,1.1383,1.1376,1.1375,1.1365,1.1363,1.1356,1.135,1.1352,1.1341,1.1338,1.1338,1.1345,1.1345,1.1345,1.1346,1.1345,0,0,0,0,0,1.1429,1.1425,1.1414,1.1412,1.1409,1.1399,1.1395,1.139,1.1381,1.1378,1.137,1.1362,1.1354,1.1349,1.1342,1.1336,1.1332,1.1333,1.1334,1.1334,1.1334,1.1327,1.1326,1.1329,1.1329,1.1329,0,0,1.1434,1.1427,1.1425,1.1414,1.1408,1.1402,1.1396,1.1391,1.1386,1.1377,1.137,1.1363,1.1353,1.1345,1.1342,1.1341,1.1332,1.1334,1.1334,1.1334,1.1327,1.1326,1.1326,1.1329,1.1329,1.1329,0,0,1.1439,1.1434,1.1431,1.1424,1.1414,1.1407,1.1406,1.1395,1.139,1.1382,1.1374,1.1367,1.1356,1.1347,1.1342,1.134,1.1334,1.1338,1.1339,1.1333,1.1333,1.1332,1.133,1.1329,1.1337,1.1337,1.1337,0,1.1447,1.1438,1.143,1.1424,1.1419,1.141,1.1405,1.1399,1.1387,1.1382,1.1381,1.1363,1.1356,1.1345,1.1344,1.1341,1.1337,1.1339,1.1334,1.1333,1.1333,1.133,1.1329,1.1338,1.1338,1.1338,1.1338,0,1.1446,1.144,1.1438,1.1426,1.1421,1.1416,1.1405,1.1399,1.1393,1.1386,1.1376,1.1366,1.1355,1.1352,1.1347,1.134,1.1339,1.1336,1.1333,1.1333,1.133,1.1329,1.1338,1.1338,1.1338,1.1338,0,0,1.146,1.1441,1.1441,1.1433,1.142,1.1415,1.1408,1.1397,1.1391,1.1383,1.1375,1.1363,1.1359,1.1353,1.1346,1.1341,1.1336,1.1338,1.1337,1.1336,1.1324,1.1326,1.1325,1.1332,1.1332,1.1332,1.1325,0,1.1462,1.145,1.1441,1.1431,1.1424,1.1414,1.1407,1.1397,1.1389,1.138,1.1371,1.1362,1.1359,1.1354,1.1348,1.1338,1.1334,1.1339,1.1323,1.1323,1.1325,1.1324,1.1326,1.132,1.1324,1.1323,1.1323,0,1.1464,1.1454,1.1444,1.1428,1.1425,1.1419,1.1406,1.1399,1.1387,1.1381,1.1372,1.1364,1.1354,1.1352,1.1337,1.134,1.1333,1.1327,1.1326,1.1324,1.1323,1.132,1.1318,1.1316,1.1322,1.1322,1.1322,0,1.1472,1.1457,1.1448,1.1442,1.1425,1.142,1.1413,1.14,1.1393,1.1381,1.1376,1.1364,1.1357,1.1346,1.1334,1.1335,1.1319,1.1317,1.1312,1.1312,1.1309,1.131,1.1305,1.1307,1.1307,1.1307,1.1307,0,1.1474,1.1468,1.1451,1.1445,1.1437,1.1425,1.1416,1.1408,1.1396,1.1387,1.1377,1.1369,1.1354,1.1344,1.1334,1.1321,1.1319,1.1312,1.131,1.1312,1.1313,1.1307,1.1307,1.1307,1.1307,1.1307,1.1307,0,1.1483,1.1471,1.146,1.1444,1.1439,1.1433,1.1418,1.1411,1.1402,1.139,1.1387,1.1371,1.1358,1.1345,1.1327,1.1321,1.1307,1.1304,1.1311,1.1309,1.1305,1.1304,1.1295,1.1292,1.1298,1.1298,1.1297,0,1.1485,1.1479,1.1461,1.1455,1.1447,1.1437,1.1428,1.1416,1.1407,1.1391,1.1385,1.1371,1.1359,1.1337,1.1323,1.1309,1.1305,1.1302,1.1302,1.1304,1.1302,1.1302,1.13,1.1302,1.1302,1.1302,1.1302,0,1.1489,1.1482,1.1472,1.1458,1.1449,1.1437,1.1425,1.142,1.1405,1.1396,1.1381,1.1372,1.1352,1.1337,1.132,1.1311,1.1303,1.1302,1.13,1.1302,1.1306,1.1302,1.131,1.1302,1.1302,1.1302,1.1302,1.1302,1.1492,1.1486,1.1471,1.1459,1.1448,1.1437,1.1428,1.1417,1.1405,1.1388,1.1381,1.1366,1.135,1.1326,1.1317,1.1303,1.1302,1.1299,1.1298,1.1297,1.1297,1.1308,1.13,1.13,1.13,1.13,1.13,0,1.1494,1.1484,1.1472,1.1455,1.1444,1.1438,1.1424,1.1415,1.1402,1.1388,1.1375,1.1357,1.1342,1.1326,1.1309,1.1301,1.1297,1.1297,1.1297,1.1294,1.13,1.1303,1.13,1.13,1.13,1.13,1.13,1.13,1.1494,1.1481,1.1473,1.1454,1.1443,1.1428,1.142,1.1409,1.1397,1.1377,1.1364,1.1354,1.1338,1.132,1.1304,1.13,1.1293,1.1294,1.1288,1.1294,1.1294,1.1294,1.1297,1.1293,1.1293,1.1283,1.1283,1.1283]}]]